Regional Weather Roundup
Issued by NWS

Home | Current Version | Previous Version | Graphics & Text | Print | Product List | Glossary On
Versions: 1 2 3 4 5 6 7 8 9 10 11 12 13 14 15 16 17 18 19 20 21 22 23 24 25 26 27 28 29 30 31 32 33 34 35 36 37 38 39 40 41 42 43 44 45 46 47 48 49 50
512
ASUS44 KJAN 240210
RWRMS

MISSISSIPPI HOURLY WEATHER ROUNDUP
NATIONAL WEATHER SERVICE JACKSON MS
900 PM CDT WED JUL 23 2014

NOTE: "FAIR: INDICATES FEW OR NO CLOUDS BELOW 12,000 FEET WITH NO
SIGNIFICANT WEATHER AND/OR OBSTRUCTIONS TO VISIBILITY.

MSZ001>002-007>008-010>013-018>021-025>028-034>036-240300-
NORTHWEST MISSISSIPPI

CITY           SKY/WX    TMP DP  RH WIND       PRES   REMARKS
CLARKSDALE     FAIR      73  73 100 W5        29.99
CLEVELAND      LGT RAIN  73  72  95 W6        29.95F
GREENWOOD      CLOUDY    73  70  90 SE6       29.95F
GREENVILLE     CLOUDY    75  70  84 CALM      29.98F
GRENADA        FAIR      73  70  88 NW6       29.99R
OLIVE BRANCH   CLEAR     72  72 100 N7        30.01R
OXFORD         FAIR      72  70  94 N3        30.03R
TUNICA         CLOUDY    73  72  94 NW5       30.00S
$$

MSZ003>006-009-014>017-022>024-029>033-037>039-240300-
NORTHEAST MISSISSIPPI

CITY           SKY/WX    TMP DP  RH WIND       PRES   REMARKS
BELMONT        FAIR      73  71  92 CALM      30.01R
COLUMBUS AFB   CLOUDY    75  70  83 E5        29.99R
CORINTH        FAIR      75  72  88 NW5       30.01R
GOLDN TRIANGLE CLOUDY    73  68  83 S7        30.01R
STARKVILLE     FAIR      73  70  88 CALM      30.00R
TUPELO         MOCLDY    77  69  76 CALM      30.00R
$$

MSZ040-058-240300-
CENTRAL MISSISSIPPI

CITY           SKY/WX    TMP DP  RH WIND       PRES   REMARKS
JACKSON INTL   MOCLDY    78  73  84 NW5       30.02R
JACKSON HAWKNS LGT RAIN  75  69  81 NW5       30.03R
MERIDIAN KEY   PTCLDY    78  71  79 CALM      30.01R
MERIDIAN NAS   CLOUDY    79  70  74 N7        30.03R
RAYMOND        FAIR      75  70  83 CALM      30.02S
VICKSBURG      MOCLDY    78  76  93 CALM      30.00S
$$

MSZ059>079-240300-
SOUTH MISSISSIPPI

CITY           SKY/WX    TMP DP  RH WIND       PRES   REMARKS
BROOKHAVEN     FAIR      79  75  89 N3        30.03F
COLUMBIA       FAIR      77  75  94 CALM      30.01R
HATTIESBURG    CLEAR     78  75  90 CALM      30.02R FOG
MCCOMB         PTCLDY    78  73  84 SE3       30.02R
NATCHEZ        MOCLDY    81  73  78 CALM      30.00F
PINE BELT      CLEAR     75  72  88 CALM      30.03S
$$

MSZ080>082-240300-
COASTAL MISSISSIPPI

CITY           SKY/WX    TMP DP  RH WIND       PRES   REMARKS
BAY ST LOUIS   CLEAR    N/A N/A N/A CALM      30.02R
BILOXI         PTCLDY    78  72  82 CALM      30.02R
PASCAGOULA     CLEAR     75  73  93 CALM      30.02R
GULFPORT       PTCLDY    79  72  79 CALM      30.01R
$$



USA.gov is the U.S. government's official web portal to all federal, state and local government web resources and services.